Location: �terpigny
(49.8910°N, 2.9249°E)
Time: 07:21:26
(UTC+00:00)

CUBESAT XI-V - Pass Details

Date: 05 July 2022
Orbit: 667 x 690 km, 98.1° (Epoch: 08 August)

Event Time Altitude Azimuth Distance (km) Brightness Sun altitude
Exits shadow 00:26:24 - 127° (SE) 2,257 ? -16.9°
Reaches altitude 10° 00:26:49 10° 125° (SE) 2,102 ? -16.9°
Maximum altitude 00:30:49 30° 64° (ENE) 1,201 ? -16.8°
Drops below altitude 10° 00:34:48 10° 4° (N) 2,108 ? -16.7°
Sets 00:37:14 0° 354° (N) 3,025 ? -16.6°
